FW5980 Weather Reports


time (UTC)temp
C
wind
direction
speed
KPH
gust
KPH
rain 1hr
cm
rain 24hr
cm
rain mn
cm
humidity
%
barometer
mb
20260906191142 30 117 0.0 0.0 0.00 0.00 0.00 64 1013.7
20260906190642 30 117 0.0 0.0 0.00 0.00 0.00 63 1013.7
20260906190142 30 81 0.0 0.0 0.00 0.00 0.00 63 1013.6
20260906185643 30 96 0.0 0.0 0.00 0.00 0.00 63 1013.7
20260906184641 31 113 0.0 0.0 0.00 0.00 0.00 62 1014.0
20260906184139 31 113 0.0 0.0 0.00 0.00 0.00 61 1014.1
20260906183639 31 208 0.0 0.0 0.00 0.00 0.00 62 1014.2
20260906183139 31 284 0.0 0.0 0.00 0.00 0.00 62 1014.2
20260906182638 30 284 0.0 0.0 0.00 0.00 0.00 63 1014.3
20260906181639 31 279 0.0 0.0 0.00 0.00 0.00 61 1014.3
20260906180636 31 171 0.0 0.0 0.00 0.00 0.00 61 1014.5
20260906180135 31 134 0.0 0.0 0.00 0.00 0.00 60 1014.6
20260906175633 31 103 0.0 0.0 0.00 0.00 0.00 60 1014.6
20260906175134 31 286 0.0 0.0 0.00 0.00 0.00 60 1014.6
20260906174632 31 172 0.0 0.0 0.00 0.00 0.00 60 1014.7
20260906174132 31 196 0.0 0.0 0.00 0.00 0.00 60 1014.6
20260906173631 31 242 0.0 0.0 0.00 0.00 0.00 63 1014.6
20260906173130 30 211 0.0 0.0 0.00 0.00 0.00 62 1014.6
20260906172132 30 219 0.0 0.0 0.00 0.00 0.00 63 1014.7
20260906171631 30 129 0.0 0.0 0.00 0.00 0.00 63 1014.9
20260906171130 30 293 0.0 0.0 0.00 0.00 0.00 64 1015.1
20260906170629 30 278 0.0 0.0 0.00 0.00 0.00 62 1015.2
20260906170131 30 266 0.0 0.0 0.00 0.00 0.00 63 1015.3
20260906165630 30 210 0.0 0.0 0.00 0.00 0.00 63 1015.4
20260906165128 30 283 0.0 0.0 0.00 0.00 0.00 65 1015.3
20260906164626 30 272 0.0 0.0 0.00 0.00 0.00 63 1015.3
20260906163626 30 248 0.0 0.0 0.00 0.00 0.00 64 1015.2
20260906163126 30 120 0.0 0.0 0.00 0.00 0.00 63 1015.3
20260906162626 30 139 0.0 0.0 0.00 0.00 0.00 66 1015.3
20260906162124 29 266 0.0 0.0 0.00 0.00 0.00 65 1015.3
20260906161626 29 266 0.0 0.0 0.00 0.00 0.00 68 1015.3
20260906161123 28 283 0.0 0.0 0.00 0.00 0.00 68 1015.4
20260906160623 28 253 0.0 0.0 0.00 0.00 0.00 69 1015.4
20260906160122 28 287 0.0 0.0 0.00 0.00 0.00 69 1015.4
20260906155620 28 293 0.0 0.0 0.00 0.00 0.00 67 1015.5
20260906155120 28 273 0.0 0.0 0.00 0.00 0.00 66 1015.6
20260906154118 28 265 0.0 0.0 0.00 0.00 0.00 69 1015.6
20260906153618 28 278 0.0 0.0 0.00 0.00 0.00 68 1015.6
20260906153117 28 254 0.0 0.0 0.00 0.00 0.00 70 1015.6
20260906152617 28 146 0.0 0.0 0.00 0.00 0.00 71 1015.6
20260906152114 28 283 0.0 0.0 0.00 0.00 0.00 70 1015.5
20260906151614 28 266 0.0 0.0 0.00 0.00 0.00 70 1015.5
20260906151114 28 136 0.0 0.0 0.00 0.00 0.00 73 1015.5
20260906150112 27 136 0.0 0.0 0.00 0.00 0.00 74 1015.5
20260906145613 27 158 0.0 0.0 0.00 0.00 0.00 76 1015.4
20260906145110 26 236 0.0 0.0 0.00 0.00 0.00 78 1015.2
20260906144610 26 243 0.0 0.0 0.00 0.00 0.00 77 1015.2
20260906144108 26 277 0.0 0.0 0.00 0.00 0.00 78 1015.3
20260906143608 26 273 0.0 0.0 0.00 0.00 0.00 78 1015.4
20260906142108 26 285 0.0 0.0 0.00 0.00 0.00 75 1015.6
20260906141608 26 283 0.0 0.0 0.00 0.00 0.00 74 1015.5
20260906141107 27 283 0.0 0.0 0.00 0.00 0.00 74 1015.6
20260906140607 26 283 0.0 0.0 0.00 0.00 0.00 75 1015.5
20260906135608 26 114 0.0 0.0 0.00 0.00 0.00 76 1014.8
20260906134609 26 114 0.0 0.0 0.00 0.00 0.00 76 1014.7
20260906134108 26 91 0.0 0.0 0.00 0.00 0.00 76 1014.7
20260906133108 26 145 0.0 0.0 0.00 0.00 0.00 76 1014.7
20260906132607 26 124 0.0 0.0 0.00 0.00 0.00 76 1014.8
20260906132108 26 111 0.0 0.0 0.00 0.00 0.00 75 1014.7
20260906131608 26 166 0.0 0.0 0.00 0.00 0.00 75 1014.7
20260906131108 26 227 0.0 0.0 0.00 0.00 0.00 75 1014.7
20260906130607 26 237 0.0 0.0 0.00 0.00 0.00 75 1014.7
20260906130108 26 242 0.0 0.0 0.00 0.00 0.00 76 1014.6
20260906125107 26 119 0.0 0.0 0.00 0.00 0.00 77 1014.5
20260906124608 26 92 0.0 0.0 0.00 0.00 0.00 77 1014.4
20260906124108 26 107 0.0 0.0 0.00 0.00 0.00 77 1014.4
20260906123608 26 107 0.0 0.0 0.00 0.00 0.00 78 1014.3
20260906123109 26 92 0.0 0.0 0.00 0.00 0.00 78 1014.1
20260906122608 26 114 0.0 0.0 0.00 0.00 0.00 78 1014.1
20260906122108 25 82 0.0 0.0 0.00 0.00 0.00 79 1014.1
20260906121607 25 106 0.0 0.0 0.00 0.00 0.00 79 1014.1
20260906121107 25 106 0.0 0.0 0.00 0.00 0.00 79 1014.1
20260906120108 25 137 0.0 0.0 0.00 0.00 0.00 79 1013.9
20260906115607 25 137 0.0 0.0 0.00 0.00 0.00 78 1013.8
20260906115107 25 137 0.0 0.0 0.00 0.00 0.00 77 1013.8
20260906114608 26 137 0.0 0.0 0.00 0.00 0.00 77 1013.7
20260906114108 26 137 0.0 0.0 0.00 0.00 0.00 77 1013.7
20260906113108 26 137 0.0 0.0 0.00 0.00 0.00 76 1013.6
20260906112107 26 171 0.0 0.0 0.00 0.00 0.00 75 1013.6
20260906111608 26 167 0.0 0.0 0.00 0.00 0.00 75 1013.5
20260906111107 26 167 0.0 0.0 0.00 0.00 0.00 75 1013.6
20260906110607 26 167 0.0 0.0 0.00 0.00 0.00 74 1013.6
20260906110108 26 167 0.0 0.0 0.00 0.00 0.00 74 1013.5
20260906105609 26 117 0.0 0.0 0.00 0.00 0.00 74 1013.5
20260906105108 26 135 0.0 0.0 0.00 0.00 0.00 73 1013.5
20260906104608 26 118 0.0 0.0 0.00 0.00 0.00 73 1013.6
20260906104107 26 106 0.0 0.0 0.00 0.00 0.00 73 1013.6
20260906103608 26 123 0.0 0.0 0.00 0.00 0.00 72 1013.6
20260906103107 27 152 0.0 0.0 0.00 0.00 0.00 72 1013.6
20260906102608 27 107 0.0 0.0 0.00 0.00 0.00 72 1013.5
20260906102108 27 115 0.0 0.0 0.00 0.00 0.00 72 1013.4
20260906101108 27 150 0.0 0.0 0.00 0.00 0.00 72 1013.4
20260906100608 27 117 0.0 0.0 0.00 0.00 0.00 72 1013.3
20260906100108 27 179 0.0 0.0 0.00 0.00 0.00 72 1013.3
20260906095609 27 176 0.0 0.0 0.00 0.00 0.00 72 1013.3
20260906095107 27 137 0.0 0.0 0.00 0.00 0.00 71 1013.3
20260906094607 27 101 0.0 0.0 0.00 0.00 0.00 72 1013.2
20260906093607 27 105 0.0 0.0 0.00 0.00 0.00 72 1013.3
20260906093107 27 129 0.0 0.0 0.00 0.00 0.00 72 1013.4
20260906092609 27 131 0.0 0.0 0.00 0.00 0.00 72 1013.4
20260906091608 27 124 0.0 0.0 0.00 0.00 0.00 72 1013.4
20260906091108 27 120 0.0 0.0 0.00 0.00 0.00 72 1013.5
20260906090107 27 122 0.0 0.0 0.00 0.00 0.00 72 1013.5
20260906085608 27 115 0.0 0.0 0.00 0.00 0.00 71 1013.5
20260906085107 27 109 0.0 0.0 0.00 0.00 0.00 71 1013.5
20260906084607 27 108 0.0 0.0 0.00 0.00 0.00 71 1013.5
20260906084107 27 129 0.0 0.0 0.00 0.00 0.00 71 1013.5
20260906083605 27 168 0.0 0.0 0.00 0.00 0.00 71 1013.5
20260906082606 27 111 0.0 0.0 0.00 0.00 0.00 72 1013.4
20260906082107 27 165 0.0 0.0 0.00 0.00 0.00 72 1013.4
20260906081607 27 117 0.0 0.0 0.00 0.00 0.00 72 1013.5
20260906080606 27 105 0.0 0.0 0.00 0.00 0.00 72 1013.2
20260906080106 27 142 0.0 0.0 0.00 0.00 0.00 72 1013.3
20260906075105 27 134 0.0 0.0 0.00 0.00 0.00 72 1013.3
20260906074606 27 116 0.0 0.0 0.00 0.00 0.00 71 1013.4
20260906074105 27 112 0.0 3.2 0.00 0.00 0.00 71 1013.3
20260906073604 28 134 0.0 4.8 0.00 0.00 0.00 69 1013.3
20260906073103 28 113 0.0 4.8 0.00 0.00 0.00 69 1013.2
20260906072601 28 127 0.0 4.8 0.00 0.00 0.00 68 1013.1
20260906072101 28 167 0.0 4.8 0.00 0.00 0.00 68 1013.1
20260906071601 28 120 0.0 4.8 0.00 0.00 0.00 68 1013.1
20260906071101 28 146 0.0 6.4 0.00 0.00 0.00 69 1013.1
20260906070601 28 111 0.0 6.4 0.00 0.00 0.00 70 1013.0
20260906070058 28 91 0.0 6.4 0.00 0.00 0.00 70 1013.2
20260906065559 27 113 0.0 11.3 0.00 0.00 0.00 70 1013.3
20260906065059 27 100 0.0 11.3 0.00 0.00 0.00 71 1013.4
20260906064555 27 136 0.0 3.2 0.00 0.00 0.00 71 1013.4
20260906064056 27 91 0.0 3.2 0.00 0.00 0.00 72 1013.4
20260906063554 27 110 0.0 0.0 0.00 0.00 0.00 72 1013.4
20260906062553 27 131 0.0 0.0 0.00 0.00 0.00 72 1013.4
20260906062050 27 117 0.0 0.0 0.00 0.00 0.00 72 1013.5
20260906061048 27 105 0.0 0.0 0.00 0.00 0.00 71 1013.5
20260906055042 27 92 0.0 0.0 0.00 0.00 0.00 71 1013.5
20260906054539 27 108 0.0 0.0 0.00 0.00 0.00 71 1013.7
20260906054037 27 99 0.0 0.0 0.00 0.00 0.00 70 1013.7
20260906053534 28 99 0.0 0.0 0.00 0.00 0.00 70 1013.6
20260906053035 28 105 0.0 0.0 0.00 0.00 0.00 70 1013.7
20260906052532 28 93 0.0 0.0 0.00 0.00 0.00 70 1013.5
20260906052030 28 98 0.0 0.0 0.00 0.00 0.00 69 1013.6
20260906051530 28 101 0.0 0.0 0.00 0.00 0.00 69 1013.5
20260906051028 28 110 0.0 0.0 0.00 0.00 0.00 69 1013.5
20260906050026 28 112 0.0 0.0 0.00 0.00 0.00 68 1013.5
20260906045525 28 84 0.0 0.0 0.00 0.00 0.00 68 1013.4
20260906045024 28 84 0.0 0.0 0.00 0.00 0.00 67 1013.4
20260906044524 28 101 0.0 0.0 0.00 0.00 0.00 67 1013.4
20260906043023 28 100 0.0 0.0 0.00 0.00 0.00 66 1013.3
20260906042524 29 117 0.0 0.0 0.00 0.00 0.00 66 1013.4
20260906042022 29 97 0.0 0.0 0.00 0.00 0.00 66 1013.3
20260906041522 29 115 0.0 0.0 0.00 0.00 0.00 66 1013.3
20260906041022 29 115 0.0 0.0 0.00 0.00 0.00 66 1013.3
20260906040522 29 115 0.0 0.0 0.00 0.00 0.00 66 1013.3
20260906035022 29 115 0.0 0.0 0.00 0.00 0.00 67 1013.3
20260906034523 28 115 0.0 0.0 0.00 0.00 0.00 67 1013.3
20260906034020 29 115 0.0 0.0 0.00 0.00 0.00 66 1013.4
20260906032520 30 115 0.0 0.0 0.00 0.00 0.00 62 1013.2
20260906032020 30 115 0.0 0.0 0.00 0.00 0.00 61 1013.2
20260906031521 30 115 0.0 0.0 0.00 0.00 0.00 61 1013.1
20260906031020 30 115 0.0 0.0 0.00 0.00 0.00 60 1013.0
20260906030521 30 115 0.0 0.0 0.00 0.00 0.00 60 1012.8
20260906030020 30 109 0.0 0.0 0.00 0.00 0.00 61 1012.7
20260906025520 30 103 0.0 0.0 0.00 0.00 0.00 61 1012.6
20260906025018 30 103 0.0 0.0 0.00 0.00 0.00 60 1012.6
20260906024518 30 129 0.0 0.0 0.00 0.00 0.00 61 1012.6
20260906024019 31 110 0.0 0.0 0.00 0.00 0.00 61 1012.5
20260906023518 31 110 0.0 0.0 0.00 0.00 0.00 61 1012.4
20260906023018 31 124 0.0 0.0 0.00 0.00 0.00 60 1012.3
20260906022016 31 122 0.0 0.0 0.00 0.00 0.00 60 1012.2
20260906021516 31 110 0.0 0.0 0.00 0.00 0.00 60 1012.1
20260906021016 31 105 0.0 0.0 0.00 0.00 0.00 61 1012.1
20260906020515 31 105 0.0 0.0 0.00 0.00 0.00 61 1011.9
20260906020016 31 105 0.0 0.0 0.00 0.00 0.00 60 1011.8
20260906015514 31 104 0.0 0.0 0.00 0.00 0.00 60 1011.7
20260906014514 31 105 0.0 0.0 0.00 0.00 0.00 58 1011.7
20260906014014 31 104 0.0 0.0 0.00 0.00 0.00 57 1011.7
20260906012514 32 105 0.0 0.0 0.00 0.00 0.00 55 1011.4
20260906011514 32 104 0.0 0.0 0.00 0.00 0.00 54 1011.2
20260906011012 32 105 0.0 0.0 0.00 0.00 0.00 54 1011.1
20260906010012 33 105 0.0 0.0 0.00 0.00 0.00 52 1011.1
20260906005512 33 105 0.0 0.0 0.00 0.00 0.00 51 1011.0
20260906005012 33 105 0.0 0.0 0.00 0.00 0.00 50 1011.0
20260906004512 34 104 0.0 0.0 0.00 0.00 0.00 50 1011.0
20260906004012 34 104 0.0 0.0 0.00 0.00 0.00 49 1010.9
20260906003512 35 151 0.0 0.0 0.00 0.00 0.00 48 1010.9
20260906003013 35 124 0.0 0.0 0.00 0.00 0.00 47 1011.0
20260906002511 35 173 0.0 0.0 0.00 0.00 0.00 46 1011.1
20260906002010 36 212 0.0 0.0 0.00 0.00 0.00 46 1011.1
20260906001510 36 167 0.0 0.0 0.00 0.00 0.00 46 1011.0
20260906000010 36 164 0.0 0.0 0.00 0.00 0.00 44 1011.2
20260905235511 36 112 0.0 0.0 0.00 0.00 0.00 44 1011.3
20260905235011 36 243 0.0 0.0 0.00 0.00 0.00 44 1011.3
20260905234510 36 194 0.0 3.2 0.00 0.00 0.00 45 1011.2
20260905234010 36 236 0.0 3.2 0.00 0.00 0.00 44 1011.1
20260905233508 36 113 0.0 1.6 0.00 0.00 0.00 44 1011.0
20260905233008 36 129 0.0 1.6 0.00 0.00 0.00 45 1010.9
20260905232508 36 216 0.0 1.6 0.00 0.00 0.00 46 1010.8
20260905232009 36 148 0.0 1.6 0.00 0.00 0.00 46 1010.8
20260905231508 36 115 0.0 1.6 0.00 0.00 0.00 47 1010.7
20260905231009 36 140 0.0 4.8 0.00 0.00 0.00 47 1010.8
20260905230508 36 84 0.0 4.8 0.00 0.00 0.00 47 1010.8
20260905225509 36 156 0.0 6.4 0.00 0.00 0.00 47 1010.8
20260905225007 36 103 0.0 8.0 0.00 0.00 0.00 47 1010.9
20260905224507 36 210 0.0 8.0 0.00 0.00 0.00 47 1010.9
20260905224008 36 135 0.0 3.2 0.00 0.00 0.00 47 1010.9
20260905223510 36 124 0.0 1.6 0.00 0.00 0.00 48 1010.9
20260905223006 36 134 0.0 1.6 0.00 0.00 0.00 47 1011.0
20260905222006 36 108 0.0 6.4 0.00 0.00 0.00 48 1011.0
20260905220505 36 117 0.0 8.0 0.00 0.00 0.00 50 1010.8
20260905220008 35 214 0.0 8.0 0.00 0.00 0.00 51 1010.9
20260905215504 35 70 0.0 11.3 0.00 0.00 0.00 58 1010.8
20260905214505 35 72 1.6 11.3 0.00 0.00 0.00 57 1010.9
20260905214005 35 56 0.0 11.3 0.00 0.00 0.00 57 1010.9
20260905213504 35 70 1.6 9.7 0.00 0.00 0.00 57 1011.0
20260905213005 35 124 1.6 17.7 0.00 0.00 0.00 58 1011.1
20260905212005 34 123 1.6 14.5 0.00 0.00 0.00 59 1011.2
20260905211504 34 72 1.6 14.5 0.00 0.00 0.00 58 1011.4
20260905211004 34 88 1.6 12.9 0.00 0.00 0.00 59 1011.5
20260905210504 34 93 0.0 12.9 0.00 0.00 0.00 59 1011.5
20260905210004 34 106 1.6 16.1 0.00 0.00 0.00 59 1011.6
20260905205005 34 85 1.6 16.1 0.00 0.00 0.00 59 1011.8
20260905204506 34 77 3.2 16.1 0.00 0.00 0.00 59 1012.1
20260905204004 34 103 3.2 19.3 0.00 0.00 0.00 59 1012.2
20260905203503 34 89 3.2 19.3 0.00 0.00 0.00 59 1012.2
20260905203005 34 84 1.6 12.9 0.00 0.00 0.00 59 1012.2
20260905202504 34 96 0.0 9.7 0.00 0.00 0.00 59 1012.3
20260905202002 34 51 0.0 9.7 0.00 0.00 0.00 59 1012.4
20260905201501 34 99 1.6 17.7 0.00 0.00 0.00 58 1012.5
20260905201003 33 74 1.6 17.7 0.00 0.00 0.00 58 1012.6
20260905200502 34 45 1.6 17.7 0.00 0.00 0.00 59 1012.7
20260905200002 33 68 3.2 17.7 0.00 0.00 0.00 59 1012.7
20260905195502 33 99 3.2 14.5 0.00 0.00 0.00 58 1012.9
20260905195003 33 50 1.6 14.5 0.00 0.00 0.00 60 1012.9
20260905194502 33 44 1.6 14.5 0.00 0.00 0.00 58 1013.0
20260905194001 33 85 1.6 14.5 0.00 0.00 0.00 57 1013.2
20260905192958 33 83 4.8 20.9 0.00 0.00 0.00 58 1013.4
20260905192458 33 61 3.2 22.5 0.00 0.00 0.00 58 1013.5
20260905191457 34 64 1.6 14.5 0.00 0.00 0.00 58 1013.6